Weather History for Racine, WI

Change the Weather History Date:

Monday, February 10, 2014

  Actual Average Record
Temperature  
Mean Temperature 2 °F -  
Max Temperature 9 °F 31 °F 59 °F (2009)
Min Temperature -5 °F 13 °F -10 °F (1982)
Degree Days  
Heating Degree Days 63    
Moisture  
Dew Point -9 °F    
Average Humidity 60    
Maximum Humidity 69    
Minimum Humidity 48    
Precipitation  
Precipitation 0.00 in - - ()
Sea Level Pressure  
Sea Level Pressure 30.43 in    
Wind  
Wind Speed 8 mph (WNW)    
Max Wind Speed 12 mph    
Max Gust Speed 17 mph    
Visibility 10 miles    
Events      
Averages and records for this station are not official NWS values.
T = Trace of Precipitation, MM = Missing Value Source: NWS Daily Summary

Daily Weather History Graph

Daily Weather History Graph

Search for Another Location

Airport:

Trip Planner

Search our weather history database for the weather conditions in past years. The results will help you decide how hot, cold, wet, or windy it might be!

Date:

Astronomy

Feb. 10, 2014 Rise Set
Actual Time 6:55 AM CST 5:16 PM CST
Civil Twilight 6:25 AM CST 5:45 PM CST
Nautical Twilight 5:52 AM CST 6:19 PM CST
Astronomical Twilight 5:19 AM CST 6:52 PM CST
Moon 1:42 PM CST (2/10) 3:50 AM CST (2/10)
Length of Visible Light 11h 20m
Length of Day
10h 21m
Waxing Gibbous, 85% of the Moon is Illuminated
Feb 10
Waxing Gibbous
Feb 14
Full
Feb 22
Last Quarter
Mar 1
New
Mar 8
First Quarter

Hourly Weather History & Observations

Time (CST) Temp. Windchill Dew Point Humidity Pressure Visibility Wind Dir Wind Speed Gust Speed Precip Events Conditions
12:53 AM 3.0 °F -11.5 °F -8.0 °F 60% 30.31 in 10.0 mi WNW 9.2 mph - N/A   Clear
1:53 AM 1.9 °F -10.6 °F -9.0 °F 60% 30.32 in 10.0 mi WNW 6.9 mph - N/A   Clear
2:53 AM -0.0 °F -14.2 °F -9.9 °F 63% 30.33 in 10.0 mi WNW 8.1 mph - N/A   Clear
3:53 AM -0.9 °F -16.4 °F -11.0 °F 62% 30.35 in 10.0 mi WNW 9.2 mph - N/A   Clear
4:53 AM -2.0 °F -16.6 °F -11.0 °F 66% 30.37 in 10.0 mi WNW 8.1 mph - N/A   Clear
5:53 AM -4.0 °F -17.8 °F -11.9 °F 69% 30.39 in 10.0 mi West 6.9 mph - N/A   Clear
6:53 AM -5.1 °F -20.4 °F -13.0 °F 69% 30.40 in 10.0 mi WNW 8.1 mph - N/A   Clear
7:53 AM -4.0 °F -20.2 °F -11.9 °F 69% 30.43 in 10.0 mi West 9.2 mph - N/A   Clear
8:53 AM -2.0 °F -17.7 °F -11.0 °F 66% 30.45 in 10.0 mi WNW 9.2 mph - N/A   Clear
9:53 AM -0.0 °F -14.2 °F -9.9 °F 63% 30.44 in 10.0 mi West 8.1 mph - N/A   Clear
10:53 AM 3.9 °F -11.3 °F -8.0 °F 58% 30.45 in 10.0 mi West 10.4 mph - N/A   Clear
11:53 AM 7.0 °F -5.7 °F -7.1 °F 53% 30.43 in 10.0 mi West 8.1 mph - N/A   Clear
12:53 PM 8.1 °F -5.3 °F -7.1 °F 50% 30.41 in 10.0 mi WNW 9.2 mph - N/A   Clear
1:53 PM 9.0 °F -5.1 °F -6.0 °F 51% 30.41 in 10.0 mi WNW 10.4 mph - N/A   Clear
2:53 PM 9.0 °F -5.9 °F -6.0 °F 51% 30.41 in 10.0 mi West 11.5 mph 17.3 mph N/A   Clear
3:53 PM 9.0 °F -4.2 °F -7.1 °F 48% 30.42 in 10.0 mi NW 9.2 mph - N/A   Clear
4:53 PM 8.1 °F -4.3 °F -7.1 °F 50% 30.44 in 10.0 mi WNW 8.1 mph - N/A   Clear
5:53 PM 5.0 °F -5.6 °F -8.0 °F 55% 30.47 in 10.0 mi WSW 5.8 mph - N/A   Clear
6:53 PM 3.0 °F -4.4 °F -8.0 °F 60% 30.48 in 10.0 mi West 3.5 mph - N/A   Clear
7:53 PM 1.9 °F -5.6 °F -9.0 °F 60% 30.49 in 10.0 mi West 3.5 mph - N/A   Clear
8:53 PM 1.0 °F -8.7 °F -9.0 °F 63% 30.49 in 10.0 mi West 4.6 mph - N/A   Clear
9:53 PM -0.0 °F -11.6 °F -9.0 °F 66% 30.50 in 10.0 mi West 5.8 mph - N/A   Clear
10:53 PM -0.9 °F -12.7 °F -9.0 °F 69% 30.50 in 10.0 mi West 5.8 mph - N/A   Clear
11:53 PM -0.9 °F -14.1 °F -9.9 °F 66% 30.51 in 10.0 mi WNW 6.9 mph - N/A   Clear